Time,TemperatureF,DewpointF,PressureIn,WindDirection,WindDirectionDegrees,WindSpeedMPH,WindSpeedGustMPH,Humidity,HourlyPrecipIn,Conditions,Clouds,dailyrainin,SoftwareType,DateUTC
2013-08-19 00:01:00,65.4,65.4,28.66,NE,49,0.0,0.0,100,0.02,,,0.00,WeatherDisplay:10.37,2013-08-19 04:01:00,
2013-08-19 00:06:00,65.3,65.3,28.66,NE,49,0.0,0.0,100,0.02,,,0.00,WeatherDisplay:10.37,2013-08-19 04:06:00,
2013-08-19 00:11:00,65.3,65.3,28.66,NE,49,0.0,0.0,100,0.02,CLR,CLR,0.00,WeatherDisplay:10.37,2013-08-19 04:11:00,
2013-08-19 00:16:00,65.4,65.4,28.65,NE,49,0.0,0.0,100,0.02,CLR,CLR,0.00,WeatherDisplay:10.37,2013-08-19 04:16:00,
2013-08-19 00:21:00,65.3,65.3,28.65,NE,49,0.0,0.0,100,0.03,RA,RA,0.01,WeatherDisplay:10.37,2013-08-19 04:21:00,
2013-08-19 00:26:00,65.3,65.3,28.65,NE,49,0.0,0.0,100,0.03,RA,RA,0.01,WeatherDisplay:10.37,2013-08-19 04:26:00,
2013-08-19 00:31:00,65.2,65.2,28.65,NE,49,0.0,0.0,100,0.05,RA,RA,0.03,WeatherDisplay:10.37,2013-08-19 04:31:00,
2013-08-19 00:36:00,65.1,65.1,28.64,NE,49,2.3,2.3,100,0.04,RA,RA,0.03,WeatherDisplay:10.37,2013-08-19 04:36:00,
2013-08-19 00:41:00,65.0,65.0,28.64,NE,49,1.2,1.2,100,0.04,CLR,CLR,0.03,WeatherDisplay:10.37,2013-08-19 04:41:00,
2013-08-19 00:46:00,64.9,64.9,28.64,NE,49,0.0,0.0,100,0.04,CLR,CLR,0.03,WeatherDisplay:10.37,2013-08-19 04:46:00,
2013-08-19 00:51:00,64.9,64.9,28.64,NE,49,1.2,1.2,100,0.04,CLR,CLR,0.03,WeatherDisplay:10.37,2013-08-19 04:51:00,
2013-08-19 00:56:00,64.8,64.8,28.65,NE,49,0.0,0.0,100,0.04,CLR,CLR,0.03,WeatherDisplay:10.37,2013-08-19 04:56:00,
2013-08-19 01:01:00,64.7,64.7,28.64,NE,47,3.5,3.5,100,0.03,CLR,CLR,0.03,WeatherDisplay:10.37,2013-08-19 05:01:00,
2013-08-19 01:06:00,64.6,64.6,28.65,NNE,16,2.3,2.3,100,0.03,CLR,CLR,0.03,WeatherDisplay:10.37,2013-08-19 05:06:00,
2013-08-19 01:11:00,64.5,64.5,28.64,NNE,16,2.3,2.3,100,0.03,CLR,CLR,0.03,WeatherDisplay:10.37,2013-08-19 05:11:00,
2013-08-19 01:16:00,64.4,64.4,28.64,NNE,16,1.2,1.2,100,0.03,CLR,CLR,0.03,WeatherDisplay:10.37,2013-08-19 05:16:00,
2013-08-19 01:21:00,64.3,64.3,28.64,NNE,16,2.3,2.3,100,0.03,RA,RA,0.04,WeatherDisplay:10.37,2013-08-19 05:21:00,
2013-08-19 01:26:00,64.3,64.3,28.64,NNE,16,0.0,0.0,100,0.03,RA,RA,0.04,WeatherDisplay:10.37,2013-08-19 05:26:00,
2013-08-19 01:31:00,64.3,64.3,28.64,NNE,16,0.0,0.0,100,0.02,RA,RA,0.05,WeatherDisplay:10.37,2013-08-19 05:31:00,
2013-08-19 01:36:00,64.3,64.3,28.63,NNE,16,0.0,0.0,100,0.02,RA,RA,0.05,WeatherDisplay:10.37,2013-08-19 05:36:00,
2013-08-19 01:41:00,64.3,64.3,28.63,NNE,16,0.0,0.0,100,0.03,RA,RA,0.06,WeatherDisplay:10.37,2013-08-19 05:41:00,
2013-08-19 01:46:00,64.3,64.3,28.63,NNE,16,0.0,0.0,100,0.03,RA,RA,0.06,WeatherDisplay:10.37,2013-08-19 05:46:00,
2013-08-19 01:51:00,64.2,64.2,28.63,NNE,16,0.0,0.0,100,0.04,RA,RA,0.07,WeatherDisplay:10.37,2013-08-19 05:51:00,
2013-08-19 01:56:00,64.2,64.2,28.63,NNE,16,0.0,0.0,100,0.04,RA,RA,0.07,WeatherDisplay:10.37,2013-08-19 05:56:00,
2013-08-19 02:01:00,64.1,64.1,28.63,NNE,16,2.3,2.3,100,0.07,RA,RA,0.10,WeatherDisplay:10.37,2013-08-19 06:01:00,
2013-08-19 02:06:00,64.1,64.1,28.63,NNE,16,1.2,1.2,100,0.14,RA,RA,0.17,WeatherDisplay:10.37,2013-08-19 06:06:00,
2013-08-19 02:11:00,64.0,64.0,28.63,NNE,16,1.2,0.0,100,0.17,RA,RA,0.20,WeatherDisplay:10.37,2013-08-19 06:11:00,
2013-08-19 02:16:00,64.0,64.0,28.62,NNE,16,2.3,2.3,100,0.20,RA,RA,0.23,WeatherDisplay:10.37,2013-08-19 06:16:00,
2013-08-19 02:21:00,64.0,64.0,28.63,NNE,16,1.2,1.2,100,0.21,RA,RA,0.25,WeatherDisplay:10.37,2013-08-19 06:21:00,
2013-08-19 02:26:00,64.0,64.0,28.64,NNE,16,0.0,0.0,100,0.22,RA,RA,0.26,WeatherDisplay:10.37,2013-08-19 06:26:00,
2013-08-19 02:31:00,64.0,64.0,28.63,NNE,16,0.0,0.0,100,0.23,RA,RA,0.28,WeatherDisplay:10.37,2013-08-19 06:31:00,
2013-08-19 02:36:00,63.9,63.9,28.63,NNE,16,0.0,0.0,100,0.25,RA,RA,0.30,WeatherDisplay:10.37,2013-08-19 06:36:00,
2013-08-19 02:41:00,63.9,63.9,28.63,NNE,16,0.0,0.0,100,0.25,RA,RA,0.31,WeatherDisplay:10.37,2013-08-19 06:41:00,
2013-08-19 02:46:00,63.8,63.8,28.63,NNE,16,0.0,0.0,100,0.26,RA,RA,0.32,WeatherDisplay:10.37,2013-08-19 06:46:00,
2013-08-19 02:51:00,63.8,63.8,28.63,NNE,16,0.0,0.0,100,0.25,RA,RA,0.32,WeatherDisplay:10.37,2013-08-19 06:51:00,
2013-08-19 02:56:00,63.8,63.8,28.63,NNE,16,0.0,0.0,100,0.26,RA,RA,0.33,WeatherDisplay:10.37,2013-08-19 06:56:00,
2013-08-19 03:01:00,63.7,63.7,28.62,NNE,16,0.0,0.0,100,0.23,RA,RA,0.33,WeatherDisplay:10.37,2013-08-19 07:01:00,
2013-08-19 03:06:00,63.7,63.7,28.62,NNE,16,0.0,0.0,100,0.16,,,0.33,WeatherDisplay:10.37,2013-08-19 07:06:00,
2013-08-19 03:11:00,63.7,63.7,28.62,NNE,16,0.0,0.0,100,0.13,CLR,CLR,0.33,WeatherDisplay:10.37,2013-08-19 07:11:00,
2013-08-19 03:16:00,63.7,63.7,28.62,NNE,16,0.0,0.0,100,0.10,CLR,CLR,0.33,WeatherDisplay:10.37,2013-08-19 07:16:00,
2013-08-19 03:21:00,63.7,63.7,28.62,NNE,16,0.0,0.0,100,0.09,RA,RA,0.34,WeatherDisplay:10.37,2013-08-19 07:21:00,
2013-08-19 03:26:00,63.7,63.7,28.62,NNE,16,0.0,0.0,100,0.08,RA,RA,0.34,WeatherDisplay:10.37,2013-08-19 07:26:00,
2013-08-19 03:31:00,63.7,63.7,28.61,NNE,16,0.0,0.0,100,0.07,RA,RA,0.35,WeatherDisplay:10.37,2013-08-19 07:31:00,
2013-08-19 03:36:00,63.7,63.7,28.61,NNE,16,0.0,0.0,100,0.05,RA,RA,0.35,WeatherDisplay:10.37,2013-08-19 07:36:00,
2013-08-19 03:41:00,63.7,63.7,28.61,NNE,16,0.0,0.0,100,0.04,CLR,CLR,0.35,WeatherDisplay:10.37,2013-08-19 07:41:00,
2013-08-19 03:46:00,63.7,63.7,28.61,NNE,16,0.0,0.0,100,0.04,RA,RA,0.36,WeatherDisplay:10.37,2013-08-19 07:46:00,
2013-08-19 03:51:00,63.6,63.6,28.62,NNE,16,0.0,0.0,100,0.04,RA,RA,0.36,WeatherDisplay:10.37,2013-08-19 07:51:00,
2013-08-19 03:56:00,63.6,63.6,28.61,NNE,16,0.0,0.0,100,0.03,,,0.36,WeatherDisplay:10.37,2013-08-19 07:56:00,
2013-08-19 04:01:00,63.7,63.7,28.61,NNE,16,0.0,0.0,100,0.03,CLR,CLR,0.36,WeatherDisplay:10.37,2013-08-19 08:01:00,
2013-08-19 04:06:00,63.6,63.6,28.62,NNE,16,0.0,0.0,100,0.04,RA,RA,0.37,WeatherDisplay:10.37,2013-08-19 08:06:00,
2013-08-19 04:11:00,63.6,63.6,28.62,NNE,16,0.0,0.0,100,0.04,RA,RA,0.37,WeatherDisplay:10.37,2013-08-19 08:11:00,
2013-08-19 04:16:00,63.6,63.6,28.61,NNE,16,0.0,0.0,100,0.04,,,0.37,WeatherDisplay:10.37,2013-08-19 08:16:00,
2013-08-19 04:21:00,63.6,63.6,28.62,NNE,16,0.0,0.0,100,0.03,CLR,CLR,0.37,WeatherDisplay:10.37,2013-08-19 08:21:00,
2013-08-19 04:26:00,63.6,63.6,28.61,NNE,16,0.0,0.0,100,0.04,RA,RA,0.38,WeatherDisplay:10.37,2013-08-19 08:26:00,
2013-08-19 04:31:00,63.5,63.5,28.62,NNE,16,0.0,0.0,100,0.03,RA,RA,0.38,WeatherDisplay:10.37,2013-08-19 08:31:00,
2013-08-19 04:36:00,63.5,63.5,28.61,NNE,16,0.0,0.0,100,0.03,CLR,CLR,0.38,WeatherDisplay:10.37,2013-08-19 08:36:00,
2013-08-19 04:41:00,63.6,63.6,28.61,NNE,16,0.0,0.0,100,0.03,CLR,CLR,0.38,WeatherDisplay:10.37,2013-08-19 08:41:00,
2013-08-19 04:46:00,63.6,63.6,28.62,NNE,16,0.0,0.0,100,0.03,RA,RA,0.39,WeatherDisplay:10.37,2013-08-19 08:46:00,
2013-08-19 04:51:00,63.6,63.6,28.61,NNE,16,0.0,0.0,100,0.03,RA,RA,0.39,WeatherDisplay:10.37,2013-08-19 08:51:00,
2013-08-19 04:56:00,63.6,63.6,28.61,NNE,16,1.2,1.2,100,0.03,CLR,CLR,0.39,WeatherDisplay:10.37,2013-08-19 08:56:00,
2013-08-19 05:01:00,63.6,63.6,28.62,NNE,16,0.0,0.0,100,0.03,CLR,CLR,0.39,WeatherDisplay:10.37,2013-08-19 09:01:00,
2013-08-19 05:06:00,63.6,63.6,28.61,NNE,16,0.0,0.0,100,0.02,CLR,CLR,0.39,WeatherDisplay:10.37,2013-08-19 09:06:00,
2013-08-19 05:11:00,63.6,63.6,28.61,NNE,16,0.0,0.0,100,0.02,CLR,CLR,0.39,WeatherDisplay:10.37,2013-08-19 09:11:00,
2013-08-19 05:16:00,63.6,63.6,28.61,NNE,16,0.0,0.0,100,0.02,CLR,CLR,0.39,WeatherDisplay:10.37,2013-08-19 09:16:00,
2013-08-19 05:21:00,63.6,63.6,28.62,NNE,16,0.0,0.0,100,0.02,CLR,CLR,0.39,WeatherDisplay:10.37,2013-08-19 09:21:00,
2013-08-19 05:26:00,63.6,63.6,28.62,NNE,16,0.0,0.0,100,0.02,RA,RA,0.40,WeatherDisplay:10.37,2013-08-19 09:26:00,
2013-08-19 05:31:00,63.6,63.6,28.62,NNE,16,0.0,0.0,100,0.02,RA,RA,0.40,WeatherDisplay:10.37,2013-08-19 09:31:00,
2013-08-19 05:36:00,63.5,63.5,28.62,NNE,16,0.0,0.0,100,0.03,RA,RA,0.41,WeatherDisplay:10.37,2013-08-19 09:36:00,
2013-08-19 05:41:00,63.5,63.5,28.62,NNE,16,0.0,0.0,100,0.03,RA,RA,0.41,WeatherDisplay:10.37,2013-08-19 09:41:00,
2013-08-19 05:46:00,63.5,63.5,28.61,NNE,16,0.0,0.0,100,0.02,,,0.41,WeatherDisplay:10.37,2013-08-19 09:46:00,
2013-08-19 05:51:00,63.4,63.4,28.62,NNE,16,0.0,0.0,100,0.03,RA,RA,0.42,WeatherDisplay:10.37,2013-08-19 09:51:00,
2013-08-19 05:56:00,63.4,63.4,28.62,NNE,16,0.0,0.0,100,0.03,RA,RA,0.42,WeatherDisplay:10.37,2013-08-19 09:56:00,
2013-08-19 06:01:00,63.4,63.4,28.62,NNE,15,0.0,0.0,100,0.04,RA,RA,0.43,WeatherDisplay:10.37,2013-08-19 10:01:00,
2013-08-19 06:06:00,63.3,63.3,28.62,NNE,15,0.0,0.0,100,0.04,RA,RA,0.43,WeatherDisplay:10.37,2013-08-19 10:06:00,
2013-08-19 06:11:00,63.3,63.3,28.62,NNE,15,0.0,0.0,100,0.05,RA,RA,0.44,WeatherDisplay:10.37,2013-08-19 10:11:00,
2013-08-19 06:16:00,63.3,63.3,28.62,NNE,15,0.0,0.0,100,0.05,RA,RA,0.44,WeatherDisplay:10.37,2013-08-19 10:16:00,
2013-08-19 06:21:00,63.4,63.4,28.62,NNE,15,0.0,0.0,100,0.06,RA,RA,0.45,WeatherDisplay:10.37,2013-08-19 10:21:00,
2013-08-19 06:26:00,63.3,63.3,28.62,NNE,15,0.0,0.0,100,0.05,RA,RA,0.45,WeatherDisplay:10.37,2013-08-19 10:26:00,
2013-08-19 06:31:00,63.4,63.4,28.62,NNE,15,0.0,0.0,100,0.06,RA,RA,0.46,WeatherDisplay:10.37,2013-08-19 10:31:00,
2013-08-19 06:36:00,63.3,63.3,28.62,NNE,15,0.0,0.0,100,0.05,RA,RA,0.46,WeatherDisplay:10.37,2013-08-19 10:36:00,
2013-08-19 06:41:00,63.3,63.3,28.67,NNE,16,0.0,0.0,100,0.06,RA,RA,0.47,WeatherDisplay:10.37,2013-08-19 10:41:00,
2013-08-19 06:46:00,63.2,63.2,28.66,NNE,16,0.0,0.0,100,0.06,RA,RA,0.47,WeatherDisplay:10.37,2013-08-19 10:46:00,
2013-08-19 06:51:00,63.4,63.4,28.65,NNE,25,2.0,2.0,100,0.05,,,0.47,WeatherDisplay:10.37,2013-08-19 10:51:00,
2013-08-19 06:56:00,63.4,63.4,28.66,NNE,25,0.0,0.0,100,0.06,RA,RA,0.48,WeatherDisplay:10.37,2013-08-19 10:56:00,
2013-08-19 07:01:00,63.5,63.5,28.69,NNE,25,0.0,0.0,100,0.06,RA,RA,0.49,WeatherDisplay:10.37,2013-08-19 11:01:00,
2013-08-19 07:06:00,63.5,63.5,28.67,NNE,25,2.0,2.0,100,0.06,RA,RA,0.49,WeatherDisplay:10.37,2013-08-19 11:06:00,
2013-08-19 07:11:00,63.5,63.5,28.67,NNE,21,0.0,0.0,100,0.05,,,0.49,WeatherDisplay:10.37,2013-08-19 11:11:00,
2013-08-19 07:16:00,63.5,63.5,28.69,NNE,21,0.0,0.0,100,0.06,RA,RA,0.50,WeatherDisplay:10.37,2013-08-19 11:16:00,
2013-08-19 07:21:00,63.5,63.5,28.69,NNE,21,0.0,0.0,100,0.05,RA,RA,0.50,WeatherDisplay:10.37,2013-08-19 11:21:00,
2013-08-19 07:26:00,63.5,63.5,28.67,NNE,21,0.0,0.0,100,0.06,RA,RA,0.51,WeatherDisplay:10.37,2013-08-19 11:26:00,
2013-08-19 07:31:00,63.5,63.5,28.69,NNE,21,0.0,0.0,100,0.05,RA,RA,0.51,WeatherDisplay:10.37,2013-08-19 11:31:00,
2013-08-19 07:36:00,63.7,63.7,28.67,NNE,21,0.0,0.0,100,0.05,,,0.51,WeatherDisplay:10.37,2013-08-19 11:36:00,
2013-08-19 07:41:00,63.7,63.7,28.68,NNE,21,0.0,0.0,100,0.05,RA,RA,0.52,WeatherDisplay:10.37,2013-08-19 11:41:00,
2013-08-19 07:46:00,63.7,63.7,28.67,NNE,21,0.0,0.0,100,0.05,RA,RA,0.52,WeatherDisplay:10.37,2013-08-19 11:46:00,
2013-08-19 07:51:00,63.7,63.7,28.69,NNE,21,0.0,0.0,100,0.05,CLR,CLR,0.52,WeatherDisplay:10.37,2013-08-19 11:51:00,
2013-08-19 07:56:00,63.8,63.8,28.67,NNE,21,0.0,0.0,100,0.05,RA,RA,0.53,WeatherDisplay:10.37,2013-08-19 11:56:00,
2013-08-19 08:01:00,63.8,63.8,28.65,NNE,21,1.2,1.2,100,0.04,RA,RA,0.53,WeatherDisplay:10.37,2013-08-19 12:01:00,
2013-08-19 08:06:00,63.9,63.9,28.66,NNE,21,2.3,2.3,100,0.04,CLR,CLR,0.53,WeatherDisplay:10.37,2013-08-19 12:06:00,
2013-08-19 08:11:00,63.9,63.9,28.66,NNE,21,1.2,0.0,100,0.04,CLR,CLR,0.53,WeatherDisplay:10.37,2013-08-19 12:11:00,
2013-08-19 08:16:00,64.0,64.0,28.64,NNE,21,0.0,0.1,100,0.03,CLR,CLR,0.53,WeatherDisplay:10.37,2013-08-19 12:16:00,
2013-08-19 08:21:00,64.1,64.1,28.64,NNE,21,1.2,0.0,100,0.03,CLR,CLR,0.53,WeatherDisplay:10.37,2013-08-19 12:21:00,
2013-08-19 08:26:00,64.2,64.2,28.63,NNE,21,0.0,0.1,100,0.02,CLR,CLR,0.53,WeatherDisplay:10.37,2013-08-19 12:26:00,
2013-08-19 08:32:00,64.2,64.2,28.65,NNE,21,2.3,2.3,100,0.02,CLR,CLR,0.53,WeatherDisplay:10.37,2013-08-19 12:32:00,
2013-08-19 08:38:00,64.5,64.5,28.67,SE,143,3.5,3.5,100,0.02,CLR,CLR,0.53,WeatherDisplay:10.37,2013-08-19 12:38:00,
2013-08-19 08:43:00,64.8,64.8,28.63,SE,143,1.2,1.2,100,0.01,CLR,CLR,0.53,WeatherDisplay:10.37,2013-08-19 12:43:00,
2013-08-19 08:48:00,64.8,64.8,28.63,SE,143,0.0,0.1,100,0.01,CLR,CLR,0.53,WeatherDisplay:10.37,2013-08-19 12:48:00,
2013-08-19 08:53:00,64.8,64.8,28.63,SE,143,0.0,0.0,100,0.00,CLR,CLR,0.53,WeatherDisplay:10.37,2013-08-19 12:53:00,
2013-08-19 08:58:00,65.0,65.0,28.62,SE,143,0.0,0.0,100,0.00,CLR,CLR,0.53,WeatherDisplay:10.37,2013-08-19 12:58:00,
2013-08-19 09:03:00,65.1,65.1,28.61,SE,143,0.0,0.0,100,0.00,CLR,CLR,0.53,WeatherDisplay:10.37,2013-08-19 13:03:00,
2013-08-19 09:08:00,65.1,65.1,28.64,SE,143,0.0,0.0,100,0.00,CLR,CLR,0.53,WeatherDisplay:10.37,2013-08-19 13:08:00,
2013-08-19 09:13:00,65.2,65.2,28.64,SE,144,2.3,2.3,100,0.00,CLR,CLR,0.53,WeatherDisplay:10.37,2013-08-19 13:13:00,
2013-08-19 09:18:00,65.2,65.2,28.63,SE,144,1.2,1.2,100,0.00,CLR,CLR,0.53,WeatherDisplay:10.37,2013-08-19 13:18:00,
2013-08-19 09:23:00,65.2,65.2,28.67,SE,144,0.0,0.0,100,0.00,CLR,CLR,0.53,WeatherDisplay:10.37,2013-08-19 13:23:00,
2013-08-19 09:28:00,65.5,65.5,28.64,SE,144,0.0,0.0,100,0.00,CLR,CLR,0.53,WeatherDisplay:10.37,2013-08-19 13:28:00,
2013-08-19 09:33:00,65.7,65.7,28.62,SE,144,0.0,0.0,100,0.00,CLR,CLR,0.53,WeatherDisplay:10.37,2013-08-19 13:33:00,
2013-08-19 09:38:00,65.9,65.9,28.63,SE,143,1.2,1.2,100,0.00,CLR,CLR,0.53,WeatherDisplay:10.37,2013-08-19 13:38:00,
2013-08-19 09:43:00,66.0,66.0,28.61,SE,143,1.2,1.2,100,0.00,CLR,CLR,0.53,WeatherDisplay:10.37,2013-08-19 13:43:00,
2013-08-19 09:48:00,66.1,66.1,28.62,SE,144,3.5,3.5,100,0.00,CLR,CLR,0.53,WeatherDisplay:10.37,2013-08-19 13:48:00,
2013-08-19 09:53:00,66.3,66.3,28.63,SE,144,3.5,3.5,100,0.00,CLR,CLR,0.53,WeatherDisplay:10.37,2013-08-19 13:53:00,
2013-08-19 09:58:00,66.4,66.4,28.63,SE,144,1.2,0.0,100,0.00,CLR,CLR,0.53,WeatherDisplay:10.37,2013-08-19 13:58:00,
2013-08-19 10:03:00,66.5,66.5,28.65,SE,144,1.2,1.2,100,0.00,CLR,CLR,0.53,WeatherDisplay:10.37,2013-08-19 14:03:00,
2013-08-19 10:08:00,66.6,66.6,28.64,SE,145,1.2,1.2,100,0.00,CLR,CLR,0.53,WeatherDisplay:10.37,2013-08-19 14:08:00,
2013-08-19 10:13:00,66.7,66.7,28.65,SE,145,3.5,3.5,100,0.00,CLR,CLR,0.53,WeatherDisplay:10.37,2013-08-19 14:13:00,
2013-08-19 10:18:00,66.8,66.8,28.64,SE,145,0.0,0.0,100,0.00,CLR,CLR,0.53,WeatherDisplay:10.37,2013-08-19 14:18:00,
2013-08-19 10:23:00,66.8,66.8,28.65,SE,145,0.0,0.0,100,0.00,CLR,CLR,0.53,WeatherDisplay:10.37,2013-08-19 14:23:00,
2013-08-19 10:28:00,66.8,66.8,28.65,SE,145,0.0,0.0,100,0.00,CLR,CLR,0.53,WeatherDisplay:10.37,2013-08-19 14:28:00,
2013-08-19 10:33:00,67.1,67.1,28.66,SE,145,3.5,3.5,100,0.00,CLR,CLR,0.53,WeatherDisplay:10.37,2013-08-19 14:33:00,
2013-08-19 10:38:00,67.3,67.3,28.66,SE,145,0.0,0.0,100,0.00,CLR,CLR,0.53,WeatherDisplay:10.37,2013-08-19 14:38:00,
2013-08-19 10:43:00,67.3,67.3,28.66,SE,145,0.0,0.0,100,0.00,CLR,CLR,0.53,WeatherDisplay:10.37,2013-08-19 14:43:00,
2013-08-19 10:48:00,67.4,67.4,28.66,SE,145,0.0,0.0,100,0.00,CLR,CLR,0.53,WeatherDisplay:10.37,2013-08-19 14:48:00,
2013-08-19 10:53:00,67.5,67.5,28.66,SE,145,0.0,0.0,100,0.00,CLR,CLR,0.53,WeatherDisplay:10.37,2013-08-19 14:53:00,
2013-08-19 10:58:00,67.7,67.7,28.66,SE,145,1.2,0.0,100,0.00,CLR,CLR,0.53,WeatherDisplay:10.37,2013-08-19 14:58:00,
2013-08-19 11:03:00,67.7,67.7,28.66,SE,143,1.2,1.2,100,0.00,CLR,CLR,0.53,WeatherDisplay:10.37,2013-08-19 15:03:00,
2013-08-19 11:08:00,67.7,67.7,28.66,SE,143,1.2,1.2,100,0.00,CLR,CLR,0.53,WeatherDisplay:10.37,2013-08-19 15:08:00,
2013-08-19 11:13:00,67.9,67.9,28.66,SE,143,1.2,1.2,100,0.00,CLR,CLR,0.53,WeatherDisplay:10.37,2013-08-19 15:13:00,
2013-08-19 11:18:00,67.9,67.9,28.66,SE,143,0.0,0.0,100,0.00,CLR,CLR,0.53,WeatherDisplay:10.37,2013-08-19 15:18:00,
2013-08-19 11:23:00,68.0,68.0,28.66,SE,143,0.0,0.0,100,0.00,CLR,CLR,0.53,WeatherDisplay:10.37,2013-08-19 15:23:00,
2013-08-19 11:28:00,68.0,68.0,28.65,SE,143,1.2,1.2,100,0.00,CLR,CLR,0.53,WeatherDisplay:10.37,2013-08-19 15:28:00,
2013-08-19 11:33:00,68.1,68.1,28.65,SE,143,0.0,0.0,100,0.00,CLR,CLR,0.53,WeatherDisplay:10.37,2013-08-19 15:33:00,
2013-08-19 11:38:00,68.4,68.4,28.68,SE,145,3.5,3.5,100,0.00,CLR,CLR,0.53,WeatherDisplay:10.37,2013-08-19 15:38:00,
2013-08-19 11:43:00,68.4,68.4,28.67,SE,144,2.0,2.0,100,0.00,CLR,CLR,0.53,WeatherDisplay:10.37,2013-08-19 15:43:00,
2013-08-19 11:48:00,68.3,68.3,28.67,SE,144,2.3,2.3,100,0.00,CLR,CLR,0.53,WeatherDisplay:10.37,2013-08-19 15:48:00,
2013-08-19 11:53:00,68.3,68.3,28.68,SE,144,1.2,1.2,100,0.00,CLR,CLR,0.53,WeatherDisplay:10.37,2013-08-19 15:53:00,
2013-08-19 11:58:00,68.3,68.3,28.67,SE,144,0.0,0.0,100,0.00,CLR,CLR,0.53,WeatherDisplay:10.37,2013-08-19 15:58:00,
2013-08-19 12:03:00,68.3,68.3,28.67,SE,144,0.0,0.0,100,0.00,CLR,CLR,0.53,WeatherDisplay:10.37,2013-08-19 16:03:00,
2013-08-19 12:08:00,68.1,68.1,28.67,SE,144,0.0,0.0,100,0.01,RA,RA,0.54,WeatherDisplay:10.37,2013-08-19 16:08:00,
2013-08-19 12:13:00,68.0,68.0,28.67,SE,144,0.0,0.0,100,0.01,RA,RA,0.54,WeatherDisplay:10.37,2013-08-19 16:13:00,
2013-08-19 12:18:00,68.0,68.0,28.66,SE,144,0.0,0.0,100,0.02,RA,RA,0.55,WeatherDisplay:10.37,2013-08-19 16:18:00,
2013-08-19 12:23:00,68.0,68.0,28.67,SE,145,0.0,0.0,100,0.03,RA,RA,0.56,WeatherDisplay:10.37,2013-08-19 16:23:00,
2013-08-19 12:28:00,68.0,68.0,28.67,SE,145,0.0,0.0,100,0.04,RA,RA,0.57,WeatherDisplay:10.37,2013-08-19 16:28:00,
2013-08-19 12:33:00,68.2,68.2,28.66,SE,145,0.0,0.0,100,0.05,RA,RA,0.58,WeatherDisplay:10.37,2013-08-19 16:33:00,
2013-08-19 12:38:00,68.3,68.3,28.65,SE,145,0.0,0.0,100,0.05,RA,RA,0.58,WeatherDisplay:10.37,2013-08-19 16:38:00,
2013-08-19 12:43:00,68.3,68.3,28.64,SE,145,1.2,1.2,100,0.05,CLR,CLR,0.58,WeatherDisplay:10.37,2013-08-19 16:43:00,
2013-08-19 12:48:00,68.7,68.7,28.65,SE,146,3.5,3.5,100,0.06,RA,RA,0.59,WeatherDisplay:10.37,2013-08-19 16:48:00,
2013-08-19 12:53:00,69.0,69.0,28.66,SE,146,1.2,0.0,100,0.06,RA,RA,0.59,WeatherDisplay:10.37,2013-08-19 16:53:00,
2013-08-19 12:58:00,69.1,69.1,28.67,SE,146,1.2,1.2,100,0.06,CLR,CLR,0.59,WeatherDisplay:10.37,2013-08-19 16:58:00,
2013-08-19 13:03:00,69.1,69.1,28.65,SE,146,3.5,3.5,100,0.06,CLR,CLR,0.59,WeatherDisplay:10.37,2013-08-19 17:03:00,
2013-08-19 13:08:00,69.2,69.2,28.66,SE,146,3.5,3.5,100,0.05,CLR,CLR,0.59,WeatherDisplay:10.37,2013-08-19 17:08:00,
2013-08-19 13:13:00,69.3,69.3,28.65,SE,146,1.2,1.2,100,0.05,CLR,CLR,0.59,WeatherDisplay:10.37,2013-08-19 17:13:00,
2013-08-19 13:18:00,69.4,69.4,28.66,SE,145,0.0,0.0,100,0.04,CLR,CLR,0.59,WeatherDisplay:10.37,2013-08-19 17:18:00,
2013-08-19 13:23:00,69.7,69.7,28.66,SE,145,0.0,0.0,100,0.03,CLR,CLR,0.59,WeatherDisplay:10.37,2013-08-19 17:23:00,
2013-08-19 13:28:00,70.1,70.1,28.66,SSE,161,4.6,4.6,100,0.02,CLR,CLR,0.59,WeatherDisplay:10.37,2013-08-19 17:28:00,
2013-08-19 13:33:00,70.4,70.1,28.66,South,172,3.0,3.0,99,0.01,CLR,CLR,0.59,WeatherDisplay:10.37,2013-08-19 17:33:00,
2013-08-19 13:38:00,70.6,70.6,28.68,SW,236,2.3,2.3,100,0.01,CLR,CLR,0.59,WeatherDisplay:10.37,2013-08-19 17:38:00,
2013-08-19 13:43:00,70.5,70.5,28.67,SSE,149,1.2,1.2,100,0.01,CLR,CLR,0.59,WeatherDisplay:10.37,2013-08-19 17:43:00,
2013-08-19 13:48:00,70.6,70.6,28.67,SSE,148,2.3,2.3,100,0.00,CLR,CLR,0.59,WeatherDisplay:10.37,2013-08-19 17:48:00,
2013-08-19 13:53:00,70.7,70.7,28.66,SSE,148,1.2,1.2,100,0.00,CLR,CLR,0.59,WeatherDisplay:10.37,2013-08-19 17:53:00,
2013-08-19 13:58:00,70.7,70.7,28.67,South,186,3.5,3.5,100,0.00,CLR,CLR,0.59,WeatherDisplay:10.37,2013-08-19 17:58:00,
2013-08-19 14:03:00,70.8,70.8,28.66,SSE,156,6.0,6.0,100,0.00,CLR,CLR,0.59,WeatherDisplay:10.37,2013-08-19 18:03:00,
2013-08-19 14:08:00,70.8,70.8,28.64,South,177,4.6,4.6,100,0.00,CLR,CLR,0.59,WeatherDisplay:10.37,2013-08-19 18:08:00,
2013-08-19 14:13:00,70.8,70.8,28.67,South,189,4.6,4.6,100,0.00,CLR,CLR,0.59,WeatherDisplay:10.37,2013-08-19 18:13:00,
2013-08-19 14:18:00,70.8,70.8,28.66,SSW,194,5.8,5.8,100,0.00,CLR,CLR,0.59,WeatherDisplay:10.37,2013-08-19 18:18:00,
2013-08-19 14:23:00,71.2,71.2,28.66,South,178,4.6,4.6,100,0.00,CLR,CLR,0.59,WeatherDisplay:10.37,2013-08-19 18:23:00,
2013-08-19 14:28:00,71.4,71.4,28.65,East,101,3.5,3.5,100,0.00,CLR,CLR,0.59,WeatherDisplay:10.37,2013-08-19 18:28:00,
2013-08-19 14:33:00,71.3,71.3,28.63,South,191,3.5,3.5,100,0.00,CLR,CLR,0.59,WeatherDisplay:10.37,2013-08-19 18:33:00,
2013-08-19 14:38:00,71.6,71.6,28.64,South,175,4.6,4.6,100,0.00,CLR,CLR,0.59,WeatherDisplay:10.37,2013-08-19 18:38:00,
2013-08-19 14:43:00,71.7,71.7,28.66,South,177,9.0,9.0,100,0.00,CLR,CLR,0.59,WeatherDisplay:10.37,2013-08-19 18:43:00,
2013-08-19 14:48:00,71.7,71.7,28.65,South,190,7.0,7.0,100,0.00,CLR,CLR,0.59,WeatherDisplay:10.37,2013-08-19 18:48:00,
2013-08-19 14:53:00,71.5,71.5,28.65,South,189,10.4,10.4,100,0.00,CLR,CLR,0.59,WeatherDisplay:10.37,2013-08-19 18:53:00,
2013-08-19 14:58:00,71.4,71.4,28.65,South,184,6.9,6.9,100,0.00,CLR,CLR,0.59,WeatherDisplay:10.37,2013-08-19 18:58:00,
2013-08-19 15:03:00,71.3,71.3,28.65,South,178,4.6,5.3,100,0.00,CLR,CLR,0.59,WeatherDisplay:10.37,2013-08-19 19:03:00,
2013-08-19 15:08:00,71.5,71.5,28.64,South,191,3.5,3.5,100,0.00,CLR,CLR,0.59,WeatherDisplay:10.37,2013-08-19 19:08:00,
2013-08-19 15:13:00,71.6,71.6,28.63,South,188,9.2,9.2,100,0.00,CLR,CLR,0.59,WeatherDisplay:10.37,2013-08-19 19:13:00,
2013-08-19 15:18:00,71.8,71.8,28.63,South,177,3.5,3.5,100,0.00,CLR,CLR,0.59,WeatherDisplay:10.37,2013-08-19 19:18:00,
2013-08-19 15:23:00,72.2,72.2,28.61,SSE,164,6.9,6.9,100,0.00,CLR,CLR,0.59,WeatherDisplay:10.37,2013-08-19 19:23:00,
2013-08-19 15:29:00,72.2,72.2,28.62,SSE,168,9.2,9.2,100,0.00,CLR,CLR,0.59,WeatherDisplay:10.37,2013-08-19 19:29:00,
2013-08-19 15:34:00,72.2,72.2,28.62,SSW,196,6.9,6.9,100,0.00,CLR,CLR,0.59,WeatherDisplay:10.37,2013-08-19 19:34:00,
2013-08-19 15:39:00,72.4,72.4,28.61,South,180,5.8,5.8,100,0.00,CLR,CLR,0.59,WeatherDisplay:10.37,2013-08-19 19:39:00,
2013-08-19 15:44:00,72.6,72.6,28.62,SSW,195,8.1,8.1,100,0.00,CLR,CLR,0.59,WeatherDisplay:10.37,2013-08-19 19:44:00,
2013-08-19 15:49:00,72.8,72.5,28.62,South,189,4.0,4.0,99,0.00,CLR,CLR,0.59,WeatherDisplay:10.37,2013-08-19 19:49:00,
2013-08-19 15:54:00,73.0,73.0,28.60,SE,143,5.8,5.8,100,0.00,CLR,CLR,0.59,WeatherDisplay:10.37,2013-08-19 19:54:00,
2013-08-19 15:59:00,73.2,72.3,28.61,South,185,6.9,6.9,97,0.00,CLR,CLR,0.59,WeatherDisplay:10.37,2013-08-19 19:59:00,
2013-08-19 16:04:00,73.2,71.7,28.61,SSW,202,5.8,5.8,95,0.00,CLR,CLR,0.59,WeatherDisplay:10.37,2013-08-19 20:04:00,
2013-08-19 16:09:00,73.1,71.9,28.62,South,188,8.1,8.1,96,0.00,CLR,CLR,0.59,WeatherDisplay:10.37,2013-08-19 20:09:00,
2013-08-19 16:14:00,73.1,71.9,28.61,SSW,210,8.1,8.1,96,0.00,CLR,CLR,0.59,WeatherDisplay:10.37,2013-08-19 20:14:00,
2013-08-19 16:19:00,73.2,71.7,28.60,SSE,159,5.8,5.8,95,0.00,CLR,CLR,0.59,WeatherDisplay:10.37,2013-08-19 20:19:00,
2013-08-19 16:24:00,73.2,71.4,28.60,SSW,208,5.0,5.0,94,0.00,CLR,CLR,0.59,WeatherDisplay:10.37,2013-08-19 20:24:00,
2013-08-19 16:29:00,73.2,71.4,28.61,SSE,164,5.8,5.8,94,0.00,CLR,CLR,0.59,WeatherDisplay:10.37,2013-08-19 20:29:00,
2013-08-19 16:34:00,73.0,71.5,28.60,South,185,4.6,4.6,95,0.00,CLR,CLR,0.59,WeatherDisplay:10.37,2013-08-19 20:34:00,
2013-08-19 16:39:00,73.1,71.9,28.61,South,182,4.6,4.6,96,0.00,CLR,CLR,0.59,WeatherDisplay:10.37,2013-08-19 20:39:00,
2013-08-19 16:44:00,73.1,71.9,28.61,South,181,4.6,4.6,96,0.00,CLR,CLR,0.59,WeatherDisplay:10.37,2013-08-19 20:44:00,
2013-08-19 16:49:00,73.0,71.5,28.60,South,175,5.8,5.8,95,0.00,CLR,CLR,0.59,WeatherDisplay:10.37,2013-08-19 20:49:00,
2013-08-19 16:54:00,73.0,71.8,28.60,South,186,6.0,6.0,96,0.00,CLR,CLR,0.59,WeatherDisplay:10.37,2013-08-19 20:54:00,
2013-08-19 16:59:00,73.0,71.8,28.60,South,180,3.0,3.0,96,0.00,CLR,CLR,0.59,WeatherDisplay:10.37,2013-08-19 20:59:00,
2013-08-19 17:04:00,73.1,71.9,28.61,South,180,5.8,5.8,96,0.00,CLR,CLR,0.59,WeatherDisplay:10.37,2013-08-19 21:04:00,
2013-08-19 17:09:00,73.1,71.6,28.61,SSE,159,5.8,5.8,95,0.00,CLR,CLR,0.59,WeatherDisplay:10.37,2013-08-19 21:09:00,
2013-08-19 17:14:00,73.2,72.0,28.61,SSW,196,4.0,4.0,96,0.00,CLR,CLR,0.59,WeatherDisplay:10.37,2013-08-19 21:14:00,
2013-08-19 17:19:00,73.1,71.9,28.61,South,178,6.0,6.0,96,0.00,CLR,CLR,0.59,WeatherDisplay:10.37,2013-08-19 21:19:00,
2013-08-19 17:24:00,73.2,72.0,28.61,SW,215,5.0,5.4,96,0.00,CLR,CLR,0.59,WeatherDisplay:10.37,2013-08-19 21:24:00,
2013-08-19 17:30:00,73.2,72.3,28.60,South,190,3.5,3.5,97,0.00,CLR,CLR,0.59,WeatherDisplay:10.37,2013-08-19 21:30:00,
2013-08-19 17:35:00,73.1,72.2,28.60,SSW,195,4.0,4.0,97,0.00,CLR,CLR,0.59,WeatherDisplay:10.37,2013-08-19 21:35:00,
2013-08-19 17:40:00,73.2,72.3,28.64,SSE,158,4.6,4.6,97,0.00,CLR,CLR,0.59,WeatherDisplay:10.37,2013-08-19 21:40:00,
2013-08-19 17:45:00,73.2,72.0,28.64,SSW,194,4.6,4.6,96,0.00,CLR,CLR,0.59,WeatherDisplay:10.37,2013-08-19 21:45:00,
2013-08-19 17:50:00,72.9,71.7,28.60,SSW,196,4.6,4.6,96,0.00,CLR,CLR,0.59,WeatherDisplay:10.37,2013-08-19 21:50:00,
2013-08-19 17:55:00,72.8,71.9,28.60,SSW,194,3.5,3.5,97,0.00,CLR,CLR,0.59,WeatherDisplay:10.37,2013-08-19 21:55:00,
2013-08-19 18:00:00,72.7,72.1,28.56,SSW,195,3.0,3.0,98,0.00,CLR,CLR,0.59,WeatherDisplay:10.37,2013-08-19 22:00:00,
2013-08-19 18:05:00,72.6,72.0,28.56,South,181,5.8,5.8,98,0.00,CLR,CLR,0.59,WeatherDisplay:10.37,2013-08-19 22:05:00,
2013-08-19 18:10:00,72.6,72.0,28.56,South,183,3.5,3.5,98,0.00,CLR,CLR,0.59,WeatherDisplay:10.37,2013-08-19 22:10:00,
2013-08-19 18:15:00,72.7,72.1,28.56,South,183,3.5,3.5,98,0.00,CLR,CLR,0.59,WeatherDisplay:10.37,2013-08-19 22:15:00,
2013-08-19 18:20:00,72.5,71.9,28.56,South,185,3.5,3.5,98,0.00,CLR,CLR,0.59,WeatherDisplay:10.37,2013-08-19 22:20:00,
2013-08-19 18:25:00,72.3,71.7,28.55,SW,217,2.3,2.3,98,0.00,CLR,CLR,0.59,WeatherDisplay:10.37,2013-08-19 22:25:00,
2013-08-19 18:30:00,72.1,71.8,28.56,South,177,5.0,5.0,99,0.00,CLR,CLR,0.59,WeatherDisplay:10.37,2013-08-19 22:30:00,
2013-08-19 18:35:00,72.0,71.7,28.55,South,174,2.3,2.3,99,0.00,CLR,CLR,0.59,WeatherDisplay:10.37,2013-08-19 22:35:00,
2013-08-19 18:40:00,71.9,71.6,28.56,SSW,212,5.8,0.0,99,0.00,CLR,CLR,0.59,WeatherDisplay:10.37,2013-08-19 22:40:00,
2013-08-19 18:45:00,71.8,71.8,28.55,SSW,212,0.0,0.0,100,0.00,CLR,CLR,0.59,WeatherDisplay:10.37,2013-08-19 22:45:00,
2013-08-19 18:50:00,71.8,71.8,28.55,SSW,212,3.5,3.5,100,0.00,CLR,CLR,0.59,WeatherDisplay:10.37,2013-08-19 22:50:00,
2013-08-19 18:55:00,71.7,71.7,28.55,SSW,212,3.5,3.5,100,0.00,CLR,CLR,0.59,WeatherDisplay:10.37,2013-08-19 22:55:00,
2013-08-19 19:00:00,71.5,71.5,28.55,SSW,212,2.3,2.3,100,0.00,CLR,CLR,0.59,WeatherDisplay:10.37,2013-08-19 23:00:00,
2013-08-19 19:05:00,71.3,71.3,28.55,SSW,212,3.5,3.5,100,0.00,CLR,CLR,0.59,WeatherDisplay:10.37,2013-08-19 23:05:00,
2013-08-19 19:10:00,71.1,71.1,28.55,SSW,212,2.3,2.3,100,0.00,CLR,CLR,0.59,WeatherDisplay:10.37,2013-08-19 23:10:00,
2013-08-19 19:15:00,70.9,70.9,28.55,SSW,212,1.2,1.2,100,0.00,CLR,CLR,0.59,WeatherDisplay:10.37,2013-08-19 23:15:00,
2013-08-19 19:20:00,70.6,70.6,28.56,SSW,212,0.0,0.0,100,0.00,CLR,CLR,0.59,WeatherDisplay:10.37,2013-08-19 23:20:00,
2013-08-19 19:25:00,70.4,70.4,28.56,SSW,212,2.3,2.3,100,0.00,CLR,CLR,0.59,WeatherDisplay:10.37,2013-08-19 23:25:00,
2013-08-19 19:30:00,70.3,70.3,28.56,SSW,212,2.0,2.0,100,0.00,CLR,CLR,0.59,WeatherDisplay:10.37,2013-08-19 23:30:00,
2013-08-19 19:35:00,70.3,70.3,28.56,SSW,212,2.3,2.3,100,0.00,CLR,CLR,0.59,WeatherDisplay:10.37,2013-08-19 23:35:00,
2013-08-19 19:40:00,70.1,70.1,28.56,SSW,212,2.3,2.3,100,0.00,CLR,CLR,0.59,WeatherDisplay:10.37,2013-08-19 23:40:00,
2013-08-19 19:45:00,69.9,69.9,28.56,SSW,212,1.2,1.2,100,0.00,CLR,CLR,0.59,WeatherDisplay:10.37,2013-08-19 23:45:00,
2013-08-19 19:50:00,69.7,69.7,28.57,SSW,212,2.3,2.3,100,0.00,CLR,CLR,0.59,WeatherDisplay:10.37,2013-08-19 23:50:00,
2013-08-19 19:55:00,69.6,69.6,28.57,SSW,212,3.5,3.5,100,0.00,CLR,CLR,0.59,WeatherDisplay:10.37,2013-08-19 23:55:00,
2013-08-19 20:00:00,69.4,69.4,28.57,SSW,192,3.5,3.5,100,0.00,CLR,CLR,0.59,WeatherDisplay:10.37,2013-08-20 00:00:00,
2013-08-19 20:05:00,69.3,69.3,28.57,SSW,192,3.5,3.5,100,0.00,CLR,CLR,0.59,WeatherDisplay:10.37,2013-08-20 00:05:00,
2013-08-19 20:10:00,69.5,69.5,28.57,SSW,192,2.3,2.3,100,0.00,CLR,CLR,0.59,WeatherDisplay:10.37,2013-08-20 00:10:00,
2013-08-19 20:15:00,69.7,69.7,28.56,South,190,4.0,4.0,100,0.00,CLR,CLR,0.59,WeatherDisplay:10.37,2013-08-20 00:15:00,
2013-08-19 20:20:00,69.6,69.6,28.57,South,185,3.5,3.5,100,0.00,CLR,CLR,0.59,WeatherDisplay:10.37,2013-08-20 00:20:00,
2013-08-19 20:25:00,69.3,69.3,28.57,South,185,2.3,2.3,100,0.00,CLR,CLR,0.59,WeatherDisplay:10.37,2013-08-20 00:25:00,
2013-08-19 20:30:00,69.1,69.1,28.57,South,185,2.3,2.3,100,0.00,CLR,CLR,0.59,WeatherDisplay:10.37,2013-08-20 00:30:00,
2013-08-19 20:35:00,69.0,69.0,28.57,South,185,2.3,2.3,100,0.00,CLR,CLR,0.59,WeatherDisplay:10.37,2013-08-20 00:35:00,
2013-08-19 20:40:00,68.8,68.8,28.57,South,185,2.3,2.3,100,0.00,CLR,CLR,0.59,WeatherDisplay:10.37,2013-08-20 00:40:00,
2013-08-19 20:45:00,68.6,68.6,28.57,South,185,1.2,1.2,100,0.00,CLR,CLR,0.59,WeatherDisplay:10.37,2013-08-20 00:45:00,
2013-08-19 20:50:00,68.5,68.5,28.57,South,185,0.0,0.0,100,0.00,CLR,CLR,0.59,WeatherDisplay:10.37,2013-08-20 00:50:00,
2013-08-19 20:55:00,68.5,68.5,28.57,South,185,2.3,2.3,100,0.00,CLR,CLR,0.59,WeatherDisplay:10.37,2013-08-20 00:55:00,
2013-08-19 21:00:00,68.5,68.5,28.57,South,185,3.5,3.5,100,0.00,CLR,CLR,0.59,WeatherDisplay:10.37,2013-08-20 01:00:00,
2013-08-19 21:05:00,68.3,68.3,28.57,South,185,3.5,3.5,100,0.00,CLR,CLR,0.59,WeatherDisplay:10.37,2013-08-20 01:05:00,
2013-08-19 21:10:00,68.1,68.1,28.58,South,185,4.0,4.0,100,0.00,CLR,CLR,0.59,WeatherDisplay:10.37,2013-08-20 01:10:00,
2013-08-19 21:15:00,68.0,68.0,28.57,South,185,2.3,2.3,100,0.00,CLR,CLR,0.59,WeatherDisplay:10.37,2013-08-20 01:15:00,
2013-08-19 21:20:00,67.8,67.8,28.58,South,185,0.0,0.0,100,0.00,CLR,CLR,0.59,WeatherDisplay:10.37,2013-08-20 01:20:00,
2013-08-19 21:25:00,67.8,67.8,28.58,South,185,0.0,0.0,100,0.00,CLR,CLR,0.59,WeatherDisplay:10.37,2013-08-20 01:25:00,
2013-08-19 21:30:00,67.8,67.8,28.58,South,185,1.2,1.2,100,0.00,CLR,CLR,0.59,WeatherDisplay:10.37,2013-08-20 01:30:00,
2013-08-19 21:35:00,67.8,67.8,28.58,South,185,2.3,2.3,100,0.00,CLR,CLR,0.59,WeatherDisplay:10.37,2013-08-20 01:35:00,
2013-08-19 21:40:00,68.0,68.0,28.59,South,185,2.3,2.3,100,0.00,CLR,CLR,0.59,WeatherDisplay:10.37,2013-08-20 01:40:00,
2013-08-19 21:45:00,68.0,68.0,28.58,South,185,1.2,0.0,100,0.00,CLR,CLR,0.59,WeatherDisplay:10.37,2013-08-20 01:45:00,
2013-08-19 21:50:00,67.9,67.9,28.58,South,185,0.0,0.0,100,0.00,CLR,CLR,0.59,WeatherDisplay:10.37,2013-08-20 01:50:00,
2013-08-19 21:55:00,67.8,67.8,28.58,South,185,0.0,0.0,100,0.00,CLR,CLR,0.59,WeatherDisplay:10.37,2013-08-20 01:55:00,
2013-08-19 22:00:00,67.7,67.7,28.58,South,185,0.0,0.0,100,0.00,CLR,CLR,0.59,WeatherDisplay:10.37,2013-08-20 02:00:00,
2013-08-19 22:05:00,67.7,67.7,28.59,WSW,240,1.2,1.2,100,0.00,CLR,CLR,0.59,WeatherDisplay:10.37,2013-08-20 02:05:00,
2013-08-19 22:10:00,67.7,67.7,28.58,WSW,240,0.0,0.0,100,0.00,CLR,CLR,0.59,WeatherDisplay:10.37,2013-08-20 02:10:00,
2013-08-19 22:15:00,67.8,67.8,28.59,WSW,239,4.6,4.6,100,0.00,CLR,CLR,0.59,WeatherDisplay:10.37,2013-08-20 02:15:00,
2013-08-19 22:20:00,67.8,67.8,28.59,WSW,239,1.2,1.2,100,0.00,CLR,CLR,0.59,WeatherDisplay:10.37,2013-08-20 02:20:00,
2013-08-19 22:25:00,67.8,67.8,28.59,WSW,239,3.5,3.5,100,0.00,CLR,CLR,0.59,WeatherDisplay:10.37,2013-08-20 02:25:00,
2013-08-19 22:30:00,67.9,67.9,28.58,WSW,239,0.0,0.0,100,0.00,CLR,CLR,0.59,WeatherDisplay:10.37,2013-08-20 02:30:00,
2013-08-19 22:35:00,67.9,67.9,28.59,WSW,239,0.0,0.0,100,0.00,CLR,CLR,0.59,WeatherDisplay:10.37,2013-08-20 02:35:00,
2013-08-19 22:40:00,67.9,67.9,28.58,WSW,239,0.0,0.0,100,0.00,CLR,CLR,0.59,WeatherDisplay:10.37,2013-08-20 02:40:00,
2013-08-19 22:45:00,67.8,67.8,28.58,WSW,239,0.0,0.0,100,0.00,CLR,CLR,0.59,WeatherDisplay:10.37,2013-08-20 02:45:00,
2013-08-19 22:50:00,67.8,67.8,28.58,WSW,239,0.0,0.0,100,0.00,CLR,CLR,0.59,WeatherDisplay:10.37,2013-08-20 02:50:00,
2013-08-19 22:55:00,67.8,67.8,28.59,WSW,239,0.0,0.0,100,0.00,CLR,CLR,0.59,WeatherDisplay:10.37,2013-08-20 02:55:00,
2013-08-19 23:00:00,67.8,67.8,28.59,WSW,239,0.0,0.0,100,0.00,CLR,CLR,0.59,WeatherDisplay:10.37,2013-08-20 03:00:00,
2013-08-19 23:05:00,67.8,67.8,28.59,WSW,239,2.3,2.3,100,0.00,CLR,CLR,0.59,WeatherDisplay:10.37,2013-08-20 03:05:00,
2013-08-19 23:10:00,67.7,67.7,28.59,WSW,239,2.3,2.3,100,0.00,CLR,CLR,0.59,WeatherDisplay:10.37,2013-08-20 03:10:00,
2013-08-19 23:15:00,67.7,67.7,28.59,WSW,239,0.0,0.0,100,0.00,CLR,CLR,0.59,WeatherDisplay:10.37,2013-08-20 03:15:00,
2013-08-19 23:20:00,67.7,67.7,28.59,WSW,239,0.0,0.0,100,0.00,CLR,CLR,0.59,WeatherDisplay:10.37,2013-08-20 03:20:00,
2013-08-19 23:25:00,67.8,67.8,28.59,WSW,239,0.0,0.0,100,0.00,CLR,CLR,0.59,WeatherDisplay:10.37,2013-08-20 03:25:00,
2013-08-19 23:30:00,67.8,67.8,28.59,WSW,239,0.0,0.0,100,0.00,CLR,CLR,0.59,WeatherDisplay:10.37,2013-08-20 03:30:00,
2013-08-19 23:35:00,67.7,67.7,28.60,WSW,239,0.0,0.0,100,0.00,CLR,CLR,0.59,WeatherDisplay:10.37,2013-08-20 03:35:00,
2013-08-19 23:40:00,67.6,67.6,28.60,WSW,239,0.0,0.0,100,0.00,CLR,CLR,0.59,WeatherDisplay:10.37,2013-08-20 03:40:00,
2013-08-19 23:45:00,67.6,67.6,28.60,WSW,239,2.3,0.0,100,0.00,CLR,CLR,0.59,WeatherDisplay:10.37,2013-08-20 03:45:00,
2013-08-19 23:50:00,67.5,67.5,28.60,WSW,239,2.3,2.3,100,0.00,CLR,CLR,0.59,WeatherDisplay:10.37,2013-08-20 03:50:00,
2013-08-19 23:55:00,67.4,67.4,28.59,WSW,239,0.0,0.0,100,0.00,CLR,CLR,0.59,WeatherDisplay:10.37,2013-08-20 03:55:00,